CAP964 SAVQ-SAVD

Flight info

Callsign CAP964
Flight time 0h 33m
Altitude 3500
Route 4138S07048W
Aircraft B350/L-SBGRW/S

Departure

Time 2026-04-16 08:05
Airport Maquinchao Airport (SAVQ)

Arrival

Time 2026-04-16 08:39
Airport El Maitén Airport (SAVD)
Time Latitude Longitude Altitude Speed Heading
2026-04-16 08:00 -41.24482 -68.71307 2896 ft 0 kts
2026-04-16 08:04 -41.24475 -68.71319 2896 ft 5 kts 293°
2026-04-16 08:04 -41.24476 -68.71379 2897 ft 7 kts 256°
2026-04-16 08:05 -41.24395 -68.71486 2904 ft 52 kts 312°
2026-04-16 08:05 -41.24022 -68.72054 3127 ft 96 kts 303°
2026-04-16 08:05 -41.23890 -68.72983 3500 ft 123 kts 247°
2026-04-16 08:05 -41.24417 -68.74055 3892 ft 152 kts 246°
2026-04-16 08:06 -41.24883 -68.75415 4227 ft 172 kts 253°
2026-04-16 08:06 -41.25307 -68.77033 4371 ft 201 kts 257°
2026-04-16 08:06 -41.25707 -68.78926 4427 ft 223 kts 259°
2026-04-16 08:06 -41.26096 -68.80987 4460 ft 233 kts 261°
2026-04-16 08:07 -41.26474 -68.83078 4486 ft 233 kts 261°
2026-04-16 08:07 -41.26873 -68.85170 4492 ft 233 kts 259°
2026-04-16 08:07 -41.27284 -68.87226 4499 ft 233 kts 260°
2026-04-16 08:07 -41.27702 -68.89313 4497 ft 234 kts 259°
2026-04-16 08:08 -41.28137 -68.91398 4497 ft 234 kts 259°
2026-04-16 08:08 -41.28562 -68.93488 4513 ft 235 kts 261°
2026-04-16 08:08 -41.28943 -68.95602 4494 ft 235 kts 261°
2026-04-16 08:08 -41.29335 -68.97714 4491 ft 235 kts 260°
2026-04-16 08:09 -41.29751 -68.99813 4489 ft 234 kts 260°
2026-04-16 08:09 -41.30169 -69.01904 4482 ft 234 kts 259°
2026-04-16 08:09 -41.30581 -69.03966 4502 ft 234 kts 259°
2026-04-16 08:09 -41.30993 -69.06063 4502 ft 234 kts 260°
2026-04-16 08:10 -41.31391 -69.08161 4506 ft 234 kts 260°
2026-04-16 08:10 -41.31796 -69.10265 4500 ft 235 kts 260°
2026-04-16 08:10 -41.32195 -69.12370 4499 ft 235 kts 260°
2026-04-16 08:10 -41.32607 -69.14479 4504 ft 236 kts 260°
2026-04-16 08:11 -41.33022 -69.16589 4494 ft 236 kts 260°
2026-04-16 08:11 -41.33430 -69.18704 4501 ft 236 kts 260°
2026-04-16 08:11 -41.33841 -69.20819 4500 ft 237 kts 260°
2026-04-16 08:11 -41.34250 -69.22909 4500 ft 237 kts 260°
2026-04-16 08:12 -41.34655 -69.25032 4508 ft 236 kts 260°
2026-04-16 08:12 -41.35054 -69.27158 4505 ft 237 kts 260°
2026-04-16 08:12 -41.35458 -69.29291 4498 ft 237 kts 260°
2026-04-16 08:12 -41.35863 -69.31420 4502 ft 237 kts 260°
2026-04-16 08:13 -41.36281 -69.33546 4504 ft 238 kts 259°
2026-04-16 08:13 -41.36708 -69.35678 4521 ft 239 kts 259°
2026-04-16 08:13 -41.37125 -69.37820 4503 ft 239 kts 260°
2026-04-16 08:13 -41.37519 -69.39970 4500 ft 239 kts 261°
2026-04-16 08:14 -41.37923 -69.42091 4505 ft 239 kts 259°
2026-04-16 08:14 -41.38333 -69.44240 4507 ft 240 kts 260°
2026-04-16 08:14 -41.38734 -69.46395 4511 ft 240 kts 259°
2026-04-16 08:14 -41.39145 -69.48557 4505 ft 241 kts 259°
2026-04-16 08:15 -41.39565 -69.50719 4505 ft 241 kts 259°
2026-04-16 08:15 -41.39977 -69.52888 4510 ft 242 kts 259°
2026-04-16 08:15 -41.40388 -69.55065 4518 ft 242 kts 259°
2026-04-16 08:15 -41.40802 -69.57211 4512 ft 243 kts 259°
2026-04-16 08:16 -41.41217 -69.59394 4508 ft 244 kts 259°
2026-04-16 08:16 -41.41639 -69.61584 4505 ft 244 kts 259°
2026-04-16 08:16 -41.42041 -69.63783 4503 ft 244 kts 259°
2026-04-16 08:16 -41.42455 -69.65979 4495 ft 244 kts 259°
2026-04-16 08:17 -41.42866 -69.68174 4487 ft 243 kts 259°
2026-04-16 08:17 -41.43281 -69.70351 4500 ft 241 kts 259°
2026-04-16 08:17 -41.43689 -69.72487 4700 ft 235 kts 259°
2026-04-16 08:17 -41.44088 -69.74551 4920 ft 231 kts 259°
2026-04-16 08:18 -41.44473 -69.76619 5098 ft 229 kts 260°
2026-04-16 08:19 -41.47177 -69.91289 5489 ft 239 kts 261°
2026-04-16 08:20 -41.47573 -69.93415 5488 ft 240 kts 259°
2026-04-16 08:20 -41.47990 -69.95570 5491 ft 240 kts 259°
2026-04-16 08:20 -41.48396 -69.97725 5507 ft 240 kts 260°
2026-04-16 08:20 -41.48796 -69.99886 5497 ft 240 kts 260°
2026-04-16 08:21 -41.49207 -70.02044 5482 ft 240 kts 260°
2026-04-16 08:21 -41.49610 -70.04209 5474 ft 241 kts 261°
2026-04-16 08:21 -41.50007 -70.06382 5507 ft 241 kts 261°
2026-04-16 08:21 -41.50408 -70.08535 5631 ft 234 kts 261°
2026-04-16 08:22 -41.50795 -70.10555 5966 ft 223 kts 261°
2026-04-16 08:22 -41.51147 -70.12534 6269 ft 218 kts 262°
2026-04-16 08:22 -41.51493 -70.14505 6407 ft 220 kts 264°
2026-04-16 08:22 -41.51846 -70.16493 6440 ft 221 kts 262°
2026-04-16 08:23 -41.52224 -70.18501 6463 ft 224 kts 262°
2026-04-16 08:23 -41.52600 -70.20537 6461 ft 227 kts 262°
2026-04-16 08:23 -41.52965 -70.22595 6471 ft 229 kts 263°
2026-04-16 08:23 -41.53335 -70.24659 6461 ft 229 kts 262°
2026-04-16 08:24 -41.53721 -70.26717 6474 ft 228 kts 261°
2026-04-16 08:24 -41.54104 -70.28744 6464 ft 229 kts 262°
2026-04-16 08:24 -41.54495 -70.30809 6471 ft 229 kts 262°
2026-04-16 08:24 -41.54865 -70.32875 6452 ft 229 kts 262°
2026-04-16 08:25 -41.55236 -70.34937 6459 ft 228 kts 262°
2026-04-16 08:25 -41.55608 -70.37001 6467 ft 229 kts 262°
2026-04-16 08:25 -41.55983 -70.39062 6463 ft 229 kts 262°
2026-04-16 08:25 -41.56353 -70.41127 6480 ft 229 kts 262°
2026-04-16 08:26 -41.56735 -70.43195 6463 ft 229 kts 262°
2026-04-16 08:26 -41.57104 -70.45261 6457 ft 228 kts 262°
2026-04-16 08:26 -41.57473 -70.47295 6457 ft 228 kts 262°
2026-04-16 08:26 -41.57847 -70.49355 6446 ft 228 kts 262°
2026-04-16 08:27 -41.58216 -70.51404 6446 ft 227 kts 262°
2026-04-16 08:27 -41.58584 -70.53457 6467 ft 227 kts 262°
2026-04-16 08:27 -41.58958 -70.55511 6475 ft 228 kts 262°
2026-04-16 08:27 -41.59330 -70.57596 6341 ft 234 kts 262°
2026-04-16 08:28 -41.59702 -70.59742 6144 ft 239 kts 262°
2026-04-16 08:28 -41.60074 -70.61843 5930 ft 235 kts 261°
2026-04-16 08:28 -41.60472 -70.63957 5722 ft 235 kts 261°
2026-04-16 08:28 -41.60851 -70.66071 5598 ft 232 kts 261°
2026-04-16 08:29 -41.61231 -70.68153 5542 ft 229 kts 260°
2026-04-16 08:29 -41.61605 -70.70208 5521 ft 226 kts 261°
2026-04-16 08:29 -41.61958 -70.72245 5503 ft 224 kts 261°
2026-04-16 08:29 -41.62325 -70.74250 5499 ft 222 kts 260°
2026-04-16 08:30 -41.62681 -70.76256 5497 ft 221 kts 261°
2026-04-16 08:30 -41.63092 -70.78204 5501 ft 224 kts 246°
2026-04-16 08:30 -41.64113 -70.79813 5489 ft 229 kts 230°
2026-04-16 08:30 -41.65269 -70.81301 5352 ft 236 kts 227°
2026-04-16 08:31 -41.66476 -70.82767 5029 ft 230 kts 225°
2026-04-16 08:31 -41.67693 -70.84124 4734 ft 225 kts 220°
2026-04-16 08:31 -41.68968 -70.85340 4425 ft 225 kts 215°
2026-04-16 08:31 -41.70266 -70.86479 4109 ft 222 kts 215°
2026-04-16 08:32 -41.71553 -70.87613 3834 ft 221 kts 216°
2026-04-16 08:32 -41.72807 -70.88758 3664 ft 215 kts 217°
2026-04-16 08:32 -41.74000 -70.89878 3580 ft 209 kts 217°
2026-04-16 08:32 -41.75174 -70.90981 3537 ft 203 kts 218°
2026-04-16 08:33 -41.76355 -70.92079 3636 ft 206 kts 217°
2026-04-16 08:33 -41.77558 -70.93176 3710 ft 213 kts 216°
2026-04-16 08:33 -41.78754 -70.94297 3940 ft 206 kts 217°
2026-04-16 08:33 -41.79900 -70.95402 4238 ft 201 kts 217°
2026-04-16 08:34 -41.81024 -70.96475 4574 ft 199 kts 218°
2026-04-16 08:34 -41.82171 -70.97514 4692 ft 205 kts 221°
2026-04-16 08:34 -41.83263 -70.98760 4777 ft 212 kts 221°
2026-04-16 08:34 -41.84483 -70.99907 4764 ft 217 kts 220°
2026-04-16 08:35 -41.85649 -71.01184 4678 ft 217 kts 227°
2026-04-16 08:35 -41.86777 -71.02456 4082 ft 213 kts 218°
2026-04-16 08:35 -41.87972 -71.03622 3514 ft 207 kts 217°
2026-04-16 08:35 -41.89154 -71.04620 3250 ft 191 kts 213°
2026-04-16 08:36 -41.90206 -71.05506 3183 ft 168 kts 217°
2026-04-16 08:36 -41.91016 -71.06489 3222 ft 132 kts 233°
2026-04-16 08:36 -41.91780 -71.07162 2911 ft 136 kts 212°
2026-04-16 08:36 -41.92484 -71.07856 2807 ft 117 kts 220°
2026-04-16 08:37 -41.93206 -71.08407 2979 ft 123 kts 208°
2026-04-16 08:37 -41.94056 -71.08941 3141 ft 164 kts 210°
2026-04-16 08:37 -41.95163 -71.09866 3215 ft 205 kts 216°
2026-04-16 08:37 -41.96402 -71.10909 3660 ft 215 kts 212°
2026-04-16 08:38 -41.97761 -71.12087 3478 ft 244 kts 218°
2026-04-16 08:38 -41.99065 -71.13581 3628 ft 249 kts 225°
2026-04-16 08:38 -42.00383 -71.15147 3663 ft 252 kts 213°
2026-04-16 08:38 -42.01811 -71.16041 2913 ft 204 kts 201°
2026-04-16 08:39 -42.02963 -71.16622 2419 ft 154 kts 205°
2026-04-16 08:39 -42.03332 -71.16836 2418 ft 6 kts 108°
2026-04-16 08:39 -42.03351 -71.16827 2416 ft 30 kts 104°
2026-04-16 08:39 -42.03352 -71.16765 2415 ft 2 kts 346°
2026-04-16 08:40 -42.03291 -71.16801 2417 ft 10 kts 319°
2026-04-16 08:40 -42.03261 -71.16851 2417 ft 4 kts 226°
2026-04-16 08:40 -42.03323 -71.16917 2415 ft 0 kts 238°